Location: Doverdale
(52.2833°N, 2.2000°W)
Time: 14:47:11
(UTC+00:00)

YAOGAN 6 - Pass Details

Date: 29 October 2020
Orbit: 465 x 504 km, 97.0° (Epoch: 29 November)

Event Time Altitude Azimuth Distance (km) Brightness Sun altitude
Rises 17:44:56 0° 185° (S) 2,577 6.4 -9.7°
Reaches altitude 10° 17:47:06 10° 194° (SSW) 1,704 5.6 -10.0°
Maximum altitude 17:50:33 38° 263° (W) 789 4.4 -10.6°
Drops below altitude 10° 17:54:03 10° 333° (NNW) 1,729 5.6 -11.1°
Sets 17:56:16 0° 341° (NNW) 2,620 6.4 -11.4°
